Location: Nairn
(57.5833°N, 3.8667°W)
Time: 18:37:47
(UTC+00:00)

Tiros 1 - Pass Details

Date: 01 December 2020
Orbit: 630 x 663 km, 48.4° (Epoch: 21 January)

Event Time Altitude Azimuth Distance (km) Brightness Sun altitude
Rises 19:24:03 0° 265° (W) 2,991 11.8 -29.0°
Reaches altitude 10° 19:27:01 10° 247° (WSW) 2,073 10.5 -29.4°
Enters shadow 19:30:09 18° 206° (SSW) 1,590 9.3 -29.8°
Maximum altitude 19:30:15 18° 204° (SSW) 1,589 - -29.8°
Drops below altitude 10° 19:33:27 10° 162° (SSE) 2,055 - -30.2°
Sets 19:36:23 0° 143° (SE) 2,957 - -30.6°
